Weather observations for the past three days for
Culpeper Regional Airport
Imperial (Metric)
Date Time (edt) Wind (mph) Vis. (mi.) Weather Sky Cond. Temperature (ºF) Relative Humidity Wind Chill (°F) Heat Index (°F) Pressure Precipitation (in)
Air Dwpt 6 hour altimeter (in) sea level (mb) 1 hr 3 hr 6 hr
Max. Min.
24 08:15 Calm 10.00 Fair CLR 79.5 68.7 70% 82 29.78 0.0
24 07:55 Calm 10.00 Partly Cloudy SCT100 77 68.4 77 71.6 75% 79 29.77 0.0 0.01
24 07:35 Calm 10.00 Overcast OVC090 76.3 70.7 83% 77 29.77 0.0
24 07:15 Calm 10.00 Mostly Cloudy BKN090 74.5 71.2 90% 29.76 0.0
24 06:55 Calm 10.00 Partly Cloudy SCT090 SCT120 72.9 70.7 93% 29.76 0.0
24 06:35 Calm 10.00 Partly Cloudy SCT100 72 70.5 95% 29.75 0.0
24 06:15 Calm 10.00 Mostly Cloudy BKN100 72.1 70.5 95% 29.74 0.0
24 05:55 Calm 10.00 Overcast SCT060 OVC100 72.1 70.5 95% 29.73 0.0
24 05:35 Calm 10.00 Mostly Cloudy SCT060 BKN095 71.8 70.2 95% 29.72 0.0
24 05:15 Calm 10.00 Partly Cloudy SCT055 72.5 70.9 95% 29.73 0.0
24 04:55 Calm 10.00 Partly Cloudy SCT050 SCT110 72.9 70.7 93% 29.72 0.0 0.01
24 04:35 Calm 10.00 Mostly Cloudy BKN050 74.3 70.7 89% 29.72 0.0
24 04:15 NW 5 10.00 Partly Cloudy SCT050 SCT120 74.8 70 85% 29.71 0.0
24 03:55 W 5 10.00 Partly Cloudy SCT110 74.7 70.7 88% 29.7 0.0
24 03:35 SW 3 10.00 Mostly Cloudy BKN110 75 70.7 86% 75 29.69 0.0
24 03:15 Calm 10.00 Overcast BKN100 OVC120 75.2 70 84% 75 29.69 0.0
24 02:35 SW 5 10.00 Light Rain SCT070 BKN100 BKN120 75.9 68.5 78% 77 29.71 0.0
24 02:15 W 6 10.00 Rain SCT100 SCT120 77 67.8 73% 79 29.71 0.0
24 01:35 W 12 G 23 10.00 Fair CLR 81.9 65.1 57% 84 29.72 0.0
24 01:15 W 3 10.00 Fair CLR 80.6 68.2 66% 83 29.7 0.0
24 00:55 SW 3 10.00 Fair CLR 79.7 69.1 70% 82 29.7 0.0
24 00:35 S 5 10.00 Fair CLR 79.7 69.8 72% 83 29.7 0.0
24 00:15 S 3 10.00 Fair CLR 79.3 69.4 72% 82 29.7 0.0
23 23:55 S 3 10.00 Fair CLR 80.1 69.3 70% 83 29.7 0.0
23 23:35 S 5 10.00 Fair CLR 79.7 69.1 70% 82 29.71 0.0
23 23:15 SW 3 10.00 Partly Cloudy SCT100 80.8 68.9 67% 84 29.71 0.0
23 22:55 S 3 10.00 Fair CLR 82.4 68.9 64% 86 29.72 0.0
23 22:35 S 3 10.00 Fair CLR 82.2 68.2 63% 85 29.72 0.0
23 22:15 SW 5 10.00 Fair CLR 82.9 68 61% 86 29.71 0.0
23 21:55 SW 5 10.00 Fair CLR 84.9 67.6 56% 88 29.71 0.0
23 21:35 S 9 10.00 Partly Cloudy SCT110 86 67.5 54% 89 29.71 0.0
23 20:55 SW 6 10.00 Overcast OVC090 87.8 68 52% 91 29.7 0.0
23 19:55 S 6 10.00 Overcast SCT100 OVC120 89.8 68 97.9 89.8 49% 94 29.7 0.0
23 19:35 S 6 10.00 Mostly Cloudy SCT100 BKN120 90.3 67.6 47% 94 29.7 0.0
23 19:15 SW 5 10.00 Partly Cloudy SCT110 90.7 64.2 42% 92 29.7 0.0
23 18:55 SW 5 10.00 Mostly Cloudy BKN120 91.4 64.4 41% 93 29.7 0.0
23 18:35 SW 5 10.00 Mostly Cloudy BKN120 91.8 64.8 41% 94 29.7 0.0
23 18:15 SW 7 10.00 Mostly Cloudy BKN120 92.3 64.2 39% 94 29.71 0.0
23 17:55 SW 7 10.00 Partly Cloudy SCT120 92.7 63.5 38% 94 29.7 0.0
23 17:35 SW 8 10.00 Fair CLR 93.2 64.2 38% 95 29.7 0.0
23 17:15 SW 12 G 16 10.00 Fair CLR 94.1 63.3 36% 96 29.71 0.0
23 16:55 SW 7 G 17 10.00 Fair CLR 94.3 63.1 36% 96 29.71 0.0
23 16:35 SW 8 G 18 10.00 Fair CLR 95.4 62.8 34% 97 29.71 0.0
23 16:15 SW 12 G 23 10.00 Partly Cloudy SCT070 SCT085 95.9 62.2 33% 97 29.72 0.0
23 15:55 SW 10 10.00 Partly Cloudy SCT070 97.5 64.8 34% 100 29.72 0.0
23 15:35 SW 12 G 18 10.00 Fair CLR 97.7 63.1 32% 100 29.73 0.0
23 15:15 SW 10 G 18 10.00 Partly Cloudy SCT065 97 64.2 34% 99 29.74 0.0
23 14:55 SW 14 G 18 10.00 Fair CLR 96.8 64.4 34% 99 29.75 0.0
23 14:35 SW 9 G 16 10.00 Fair CLR 95 65.3 38% 98 29.75 0.0
23 14:15 SW 12 G 23 10.00 Fair CLR 95.5 64.2 36% 98 29.76 0.0
23 13:55 SW 12 G 16 10.00 Fair CLR 94.5 64.6 96.1 80.6 37% 97 29.76 0.0
23 13:35 SW 13 G 16 10.00 Partly Cloudy SCT120 95 64.6 37% 97 29.77 0.0
23 13:15 SW 14 G 23 10.00 Partly Cloudy SCT120 94.1 64 37% 96 29.78 0.0
23 12:55 SW 12 G 21 10.00 Fair CLR 95.7 66.6 38% 99 29.79 0.0
23 12:35 SW 9 G 18 10.00 Fair CLR 93.9 67.5 42% 98 29.8 0.0
23 12:15 SW 9 G 22 10.00 Fair CLR 94.6 67.1 41% 99 29.81 0.0
23 11:55 SW 10 G 17 10.00 Fair CLR 93.6 66.7 41% 97 29.81 0.0
23 11:35 SW 9 G 16 10.00 Fair CLR 93.9 67.3 42% 98 29.82 0.0
23 11:15 S 10 10.00 Fair CLR 92.5 67.8 44% 97 29.83 0.0
23 10:55 SW 9 10.00 Fair CLR 90.9 68 47% 95 29.83 0.0
23 10:35 SW 9 10.00 Fair CLR 89.2 68 50% 93 29.84 0.0
23 10:15 SW 9 10.00 Fair CLR 89.2 67.6 49% 93 29.84 0.0
23 09:55 SW 8 10.00 Fair CLR 87.8 67.6 51% 91 29.85 0.0
23 09:35 S 7 10.00 Fair CLR 87.3 68.2 53% 91 29.85 0.0
23 09:15 SW 8 10.00 Fair CLR 86.5 67.3 53% 90 29.86 0.0
23 08:55 S 8 10.00 Fair CLR 85.3 67.6 56% 88 29.86 0.0
23 08:35 SW 7 10.00 Fair CLR 84.2 67.6 58% 87 29.87 0.0
23 08:15 SW 6 10.00 Fair CLR 81 67.8 64% 84 29.87 0.0
23 07:55 SW 7 10.00 Fair CLR 81.1 67.6 81.1 74.1 64% 84 29.87 0.0
23 07:35 SW 8 10.00 Fair CLR 80.1 67.5 66% 83 29.87 0.0
23 07:15 SW 6 10.00 Fair CLR 78.4 67.1 68% 81 29.87 0.0
23 06:55 S 5 10.00 Fair CLR 77 67.1 72% 79 29.86 0.0
23 06:35 Calm 10.00 Fair CLR 76.3 66.7 72% 78 29.87 0.0
23 06:15 S 3 10.00 Fair CLR 76.5 66.7 72% 78 29.87 0.0
23 05:55 Calm 10.00 Fair CLR 75.7 66.7 74% 77 29.87 0.0
23 05:35 Calm 10.00 Fair CLR 75.9 66.6 73% 77 29.88 0.0
23 05:15 Calm 10.00 Fair CLR 76.3 66.6 72% 78 29.87 0.0
23 04:55 Calm 10.00 Fair CLR 76.8 66.6 71% 79 29.88 0.0
23 04:35 Calm 10.00 Fair CLR 76.6 66.4 71% 78 29.88 0.0
23 04:15 Calm 10.00 Fair CLR 76.5 66.2 71% 78 29.88 0.0
23 03:55 Calm 10.00 Fair CLR 74.1 66.2 76% 29.88 0.0
23 03:35 Calm 10.00 Fair CLR 75.4 66.2 73% 77 29.89 0.0
23 03:15 Calm 10.00 Fair CLR 77.5 66.2 68% 79 29.89 0.0
23 02:55 Calm 10.00 Fair CLR 79.2 65.7 63% 81 29.9 0.0
23 02:35 Calm 10.00 Partly Cloudy SCT090 79.5 65.5 62% 81 29.9 0.0
23 02:15 Calm 10.00 Partly Cloudy SCT090 79.9 65.3 61% 82 29.91 0.0
23 01:55 Calm 10.00 Partly Cloudy SCT090 79.9 65.3 92.1 79.9 61% 82 29.91 0.0
23 01:35 SW 3 10.00 Mostly Cloudy BKN090 81 64.8 58% 83 29.91 0.0
23 01:15 SW 3 10.00 Mostly Cloudy BKN090 82.2 64.4 55% 84 29.91 0.0
23 00:55 Calm 10.00 Mostly Cloudy BKN090 82.6 63.7 53% 84 29.92 0.0
23 00:35 S 3 10.00 Mostly Cloudy BKN090 82 62.8 52% 83 29.92 0.0
23 00:15 Calm 10.00 Mostly Cloudy BKN090 83.1 61.7 48% 84 29.92 0.0
22 23:55 Calm 10.00 Partly Cloudy SCT100 84.2 60.6 45% 84 29.92 0.0
22 23:35 Calm 10.00 Partly Cloudy SCT100 83.8 59.9 44% 84 29.93 0.0
22 23:15 Calm 10.00 Partly Cloudy SCT100 83.8 59.5 44% 84 29.93 0.0
22 22:55 Calm 10.00 Mostly Cloudy BKN100 85.1 59.2 42% 85 29.93 0.0
22 22:35 Calm 10.00 Partly Cloudy SCT100 85.1 59.2 42% 85 29.93 0.0
22 22:15 S 3 10.00 Partly Cloudy SCT110 86.4 58.6 39% 86 29.93 0.0
22 21:55 S 3 10.00 Partly Cloudy SCT110 86.9 59 39% 86 29.93 0.0
22 21:35 S 3 10.00 Partly Cloudy SCT100 86.9 59.5 40% 86 29.93 0.0
22 21:15 S 3 10.00 Mostly Cloudy BKN110 87.3 59.7 40% 87 29.93 0.0
22 20:55 Calm 10.00 Mostly Cloudy BKN100 86.2 60.8 43% 86 29.93 0.0
22 20:35 Calm 10.00 Fair CLR 88.5 60.1 38% 88 29.93 0.0
22 20:15 Calm 10.00 Fair CLR 91.2 59.4 34% 91 29.93 0.0
22 19:55 Calm 10.00 Fair CLR 92.5 60.3 99.9 92.5 34% 92 29.92 0.0
22 19:35 S 6 10.00 Fair CLR 94.5 59 31% 94 29.92 0.0
22 19:15 S 5 10.00 Fair CLR 95.4 58.6 29% 95 29.92 0.0
22 18:55 S 6 10.00 Fair CLR 96.3 58.3 28% 96 29.92 0.0
22 18:35 S 7 10.00 Fair CLR 96.8 58.6 28% 96 29.92 0.0
22 18:15 S 8 10.00 Fair CLR 97.7 59.5 28% 98 29.92 0.0
22 17:55 S 6 10.00 Partly Cloudy SCT110 97.7 60.6 29% 98 29.92 0.0
22 17:35 S 7 10.00 Mostly Cloudy BKN110 98.4 61.3 29% 99 29.93 0.0
22 17:15 S 5 10.00 Partly Cloudy SCT090 96.4 60.3 30% 97 29.93 0.0
22 16:55 S 5 10.00 Mostly Cloudy BKN090 99 59.5 27% 99 29.94 0.0
22 16:35 S 5 10.00 Partly Cloudy SCT100 97.7 60.6 29% 98 29.95 0.0
22 16:15 S 7 10.00 Fair CLR 96.3 60.4 30% 96 29.95 0.0
22 15:55 S 3 10.00 Partly Cloudy SCT075 SCT100 98.4 61.9 30% 100 29.96 0.0
22 15:35 SW 6 G 9 10.00 Mostly Cloudy BKN075 BKN090 97.5 62.1 31% 99 29.97 0.0
22 15:15 Calm 10.00 Fair CLR 98.1 62.2 31% 99 29.98 0.0
22 14:55 E 3 10.00 Fair CLR 98.2 63.5 32% 100 29.99 0.0
22 14:35 SW 5 10.00 Partly Cloudy SCT065 SCT085 97.7 63.1 32% 100 29.99 0.0
22 14:15 W 3 10.00 Mostly Cloudy SCT065 BKN085 97.5 63.7 33% 100 30 0.0
22 13:55 Calm 10.00 Partly Cloudy SCT065 SCT085 96.8 64.9 97.5 77 35% 100 30.01 0.0
22 13:35 SE 6 10.00 Fair CLR 97.5 65.5 35% 101 30.01 0.0
22 13:15 S 6 10.00 Fair CLR 95.9 63 34% 97 30.03 0.0
22 12:55 W 7 10.00 Fair CLR 95.4 64.6 36% 98 30.04 0.0
22 12:35 Calm 10.00 Fair CLR 95.2 64.8 37% 98 30.04 0.0
22 12:15 Calm 10.00 Fair CLR 94.1 64.8 38% 96 30.05 0.0
22 11:55 S 5 10.00 Fair CLR 93.9 66.2 40% 97 30.06 0.0
22 11:35 Calm 10.00 Fair CLR 93 66.9 42% 97 30.06 0.0
22 11:15 Calm 10.00 Fair CLR 91.2 66 43% 94 30.06 0.0
22 10:55 Calm 10.00 Fair CLR 90.1 66 45% 93 30.07 0.0
22 10:35 Calm 10.00 Fair CLR 89.2 65.8 46% 92 30.08 0.0
22 10:15 Calm 10.00 Fair CLR 88.2 67.1 50% 91 30.08 0.0
22 09:55 Calm 10.00 Partly Cloudy SCT070 86.2 66 51% 88 30.08 0.0
22 09:35 SW 3 10.00 Partly Cloudy SCT070 84.7 66 54% 87 30.09 0.0
22 09:15 Calm 10.00 Fair CLR 83.5 66.2 56% 86 30.09 0.0
22 08:55 Calm 10.00 Fair CLR 81.9 65.3 57% 84 30.09 0.0
22 08:35 Calm 10.00 Fair CLR 80.8 65.7 60% 83 30.1 0.0
22 08:15 Calm 10.00 Fair CLR 78.8 65.1 63% 81 30.1 0.0
22 07:55 Calm 10.00 Fair CLR 76.8 64.9 76.8 67.5 67% 79 30.1 0.0
22 07:35 Calm 10.00 Fair CLR 75.2 64.9 71% 77 30.1 0.0
22 07:15 Calm 10.00 Fair CLR 73.2 65.1 76% 30.1 0.0
22 06:55 Calm 10.00 Fair CLR 70.2 66.9 90% 30.1 0.0
22 06:35 Calm 10.00 Fair CLR 68.5 66.2 92% 30.1 0.0
22 06:15 Calm 10.00 Fair CLR 68 65.3 91% 30.1 0.0
22 05:55 Calm 10.00 Fair CLR 68.4 65.7 91% 30.1 0.0
22 05:35 Calm 10.00 Fair CLR 67.6 65.1 92% 30.09 0.0
22 05:15 Calm 10.00 Fair CLR 68.2 64.9 89% 30.09 0.0
22 04:55 Calm 10.00 Fair CLR 68 65.5 92% 30.09 0.0
22 04:35 Calm 10.00 Fair CLR 68.7 65.3 89% 30.09 0.0
22 04:15 Calm 10.00 Fair CLR 68.5 65.1 89% 30.09 0.0
22 03:55 Calm 10.00 Fair CLR 69.8 65.1 85% 30.09 0.0
22 03:35 Calm 10.00 Fair CLR 71.2 65.1 81% 30.09 0.0
22 03:15 Calm 10.00 Fair CLR 71.6 64.4 78% 30.09 0.0
22 02:55 Calm 10.00 Fair CLR 71.6 64.6 79% 30.1 0.0
22 02:35 Calm 10.00 Fair CLR 72.1 64.8 78% 30.1 0.0
22 02:15 Calm 10.00 Partly Cloudy SCT075 SCT095 73.8 64.6 73% 30.11 0.0
22 01:55 Calm 10.00 Overcast OVC075 72.5 65.7 90.5 71.2 79% 30.11 0.0
22 01:35 Calm 10.00 Partly Cloudy SCT075 71.4 65.3 81% 30.11 0.0
22 01:15 Calm 10.00 Fair CLR 72.5 65.3 78% 30.12 0.0
22 00:55 Calm 10.00 Fair CLR 72.3 65.1 78% 30.12 0.0
22 00:35 Calm 10.00 Fair CLR 72.9 65.3 77% 30.12 0.0
22 00:15 Calm 10.00 Fair CLR 72.9 65.8 79% 30.12 0.0
21 23:55 Calm 10.00 Fair CLR 73.4 65.8 77% 30.13 0.0
21 23:35 Calm 10.00 Fair CLR 74.5 65.3 73% 30.13 0.0
21 23:15 Calm 10.00 Fair CLR 75.2 65.3 71% 77 30.13 0.0
21 22:55 Calm 10.00 Fair CLR 76.6 65.5 69% 78 30.13 0.0
21 22:35 Calm 10.00 Fair CLR 77.2 65.3 67% 79 30.13 0.0
21 22:15 Calm 10.00 Fair CLR 78.3 65.5 65% 80 30.13 0.0
21 21:55 Calm 10.00 Fair CLR 79.3 65.3 62% 81 30.12 0.0
21 21:35 Calm 10.00 Fair CLR 80.2 65.3 60% 82 30.12 0.0
21 21:15 Calm 10.00 Fair CLR 82 64.6 56% 84 30.11 0.0
21 20:55 Calm 10.00 Fair CLR 84.2 65.3 53% 86 30.11 0.0
21 20:35 Calm 10.00 Fair CLR 87.4 64.2 46% 89 30.1 0.0
21 20:15 S 5 10.00 Fair CLR 89.1 63.5 43% 90 30.09 0.0
21 19:55 S 3 10.00 Fair CLR 90.7 64.4 96.4 90.7 42% 92 30.09 0.0
21 19:35 S 6 10.00 Fair CLR 92.1 63.3 38% 93 30.1 0.0
21 19:15 Calm 10.00 Fair CLR 93 63.5 38% 94 30.09 0.0
21 18:55 S 5 10.00 Fair CLR 93.7 62.8 36% 95 30.1 0.0
21 18:35 S 5 10.00 Fair CLR 94.5 63.1 35% 96 30.1 0.0
21 18:15 SW 5 10.00 Fair CLR 95 61.5 33% 96 30.1 0.0
21 17:55 Calm 10.00 Fair CLR 95 60.4 32% 95 30.1 0.0
21 17:35 Calm 10.00 Fair CLR 95.2 61.3 33% 96 30.11 0.0
21 17:15 Calm 10.00 Fair CLR 95.2 58.5 29% 94 30.11 0.0
21 16:55 Calm 10.00 Fair CLR 95.4 59.5 30% 95 30.12 0.0
21 16:35 Calm 10.00 Partly Cloudy SCT070 96.1 61.2 31% 97 30.12 0.0
21 16:15 Calm 10.00 Fair CLR 95.2 62.2 34% 96 30.13 0.0
21 15:55 Calm 10.00 Fair CLR 94.8 61.3 33% 95 30.14 0.0
21 15:35 S 3 10.00 Fair CLR 95 62.8 34% 96 30.14 0.0
21 15:15 Calm 10.00 Partly Cloudy SCT065 94.5 61.2 33% 95 30.15 0.0
21 14:55 W 6 10.00 Partly Cloudy SCT065 94.6 62.2 34% 96 30.16 0.0
21 14:35 Calm 10.00 Fair CLR 93.9 63.5 37% 95 30.17 0.0
21 14:15 Calm 10.00 Fair CLR 93.4 63.7 37% 95 30.17 0.0
21 13:55 SW 6 10.00 Fair CLR 92.8 63.7 93 74.1 38% 94 30.18 0.0
21 13:35 S 6 10.00 Fair CLR 92.3 63.9 39% 94 30.19 0.0
21 13:15 W 6 10.00 Fair CLR 91.9 64.8 41% 94 30.19 0.0
21 12:55 SW 7 10.00 Fair CLR 91.8 64.8 41% 94 30.2 0.0
21 12:35 Calm 10.00 Fair CLR 90.7 64.4 42% 92 30.21 0.0
21 12:15 S 6 10.00 Fair CLR 89.8 64.4 43% 91 30.22 0.0
21 11:55 S 3 10.00 Fair CLR 89.4 64.6 44% 91 30.23 0.0
21 11:35 S 3 10.00 Fair CLR 87.4 64.6 47% 89 30.23 0.0
21 11:15 W 3 10.00 Fair CLR 86.7 65.1 49% 89 30.23 0.0
21 10:55 Calm 10.00 Fair CLR 85.8 64.8 49% 87 30.24 0.0
21 10:35 Calm 10.00 Fair CLR 83.7 64.4 52% 85 30.24 0.0
21 10:15 Calm 10.00 Fair CLR 82 64.4 55% 84 30.24 0.0
21 09:55 Calm 10.00 Fair CLR 81.1 64.9 58% 83 30.24 0.0
21 09:35 Calm 10.00 Fair CLR 79 64.8 62% 81 30.25 0.0
21 09:15 S 5 10.00 Fair CLR 79 64.8 62% 81 30.25 0.0
21 08:55 Calm 10.00 Fair CLR 78.8 64.6 62% 81 30.25 0.0
21 08:35 Calm 10.00 Fair CLR 76.6 64.4 66% 78 30.25 0.0
Date Time (edt) Wind (mph) Vis. (mi.) Weather Sky Cond. Air Dwpt Max. Min. Relative Humidity Wind Chill (°F) Heat Index (°F) altimeter (in) sea level (mb) 1 hr 3 hr 6 hr
6 hour
Temperature (ºF) Pressure Precipitation (in)